Regional Weather Roundup
Issued by NWS

Home | Current Version | Previous Version | Graphics & Text | Print | Product List | Glossary On
Versions: 1 2 3 4 5 6 7 8 9 10 11 12 13 14 15 16 17 18 19 20 21 22 23 24 25 26 27 28 29 30 31 32 33 34 35 36 37 38 39 40 41 42 43 44 45 46 47 48 49 50
000
ASUS43 KLMK 030510
RWRKY
KENTUCKY REGIONAL WEATHER ROUNDUP
NATIONAL WEATHER SERVICE LOUISVILLE KY
100 AM EDT WED JUN 03 2015

NOTE "FAIR" INDICATES FEW OR NO CLOUDS BELOW 12,000 FEET
WITH NO SIGNIFICANT WEATHER AND/OR OBSTRUCTIONS TO VISIBILITY.

KYZ001>023-026-027-061>063-070>075-030600-
WESTERN AND SOUTH CENTRAL KENTUCKY

CITY           SKY/WX    TMP DP  RH WIND       PRES   REMARKS
PADUCAH        CLOUDY    63  58  83 E6        30.05F
HENDERSON      PTCLDY    55  52  88 CALM      30.06F
OWENSBORO      CLOUDY    60  57  89 CALM      30.08S
HOPKINSVILLE   CLOUDY    62  59  90 N5        30.06S
BOWLING GREEN  CLOUDY    62  55  77 NE7       30.07S
GLASGOW        CLOUDY    60  53  80 NE7       30.07F
$$

KYZ024-025-028>034-038-045-046-053-030600-
NORTH CENTRAL KENTUCKY

CITY           SKY/WX    TMP DP  RH WIND       PRES   REMARKS
LOUISVILLE/SDF CLOUDY    62  53  72 E8        30.09F
LOUISVILLE/LOU CLOUDY    61  52  72 E6        30.09F
FORT KNOX      CLOUDY    59  53  83 E7        30.07F
$$

KYZ035>037-039>044-047>052-055>060-089>105-030600-
NORTHEAST KENTUCKY

CITY           SKY/WX    TMP DP  RH WIND       PRES   REMARKS
LEXINGTON      CLOUDY    58  54  86 NE5       30.09F
COVINGTON      PTCLDY    58  53  84 NW3       30.10F
FRANKFORT      CLOUDY    60  53  77 NE5       30.08F
$$

KYZ054-064>069-076>088-106>120-030600-
SOUTHEAST KENTUCKY

CITY           SKY/WX    TMP DP  RH WIND       PRES   REMARKS
JACKSON        CLOUDY    57  55  93 CALM      30.09S FOG
LONDON         CLOUDY    60  54  80 NE6       30.07F
SOMERSET       CLOUDY    55  55 100 N6        30.09S
MIDDLESBORO    CLOUDY    62  59  90 N6        30.07S
MONTICELLO     CLOUDY    60  59  97 N6        30.09F
$$




USA.gov is the U.S. government's official web portal to all federal, state and local government web resources and services.